Regional Weather Roundup
Issued by NWS

Home | Current Version | Previous Version | Text Only | Print | Product List | Glossary Off
Versions: 1 2 3 4 5 6 7 8 9 10 11 12 13 14 15 16 17 18 19 20 21 22 23 24 25 26 27 28 29 30 31 32 33 34 35 36 37 38 39 40 41 42 43 44 45 46 47 48 49 50

000
ASUS45 KSLC 231510
RWRUT

UTAH REGIONAL WEATHER ROUNDUP
NATIONAL WEATHER SERVICE SALT LAKE CITY UT
900 AM MDT TUE SEP 23 2014

UTZ001>011-023>025-231600-

NORTHERN UTAH

CITY           SKY/WX    TMP DP  RH WIND       PRES   REMARKS
HILL AFB       SUNNY     62  50  63 E12       30.18R
LOGAN          SUNNY     56  51  84 CALM      30.18R
OGDEN          SUNNY     63  51  65 S8        30.16R
PROVO AIRPORT  NOT AVBL
SALT LAKE CITY MOSUNNY   65  55  70 SE9       30.15R
VERNAL         CLOUDY    58  51  78 N3        30.23R
WENDOVER       SUNNY     61  52  72 E3        30.16R
HEBER CITY     SUNNY     54  48  82 CALM      30.26S
WEST JORDAN    SUNNY     66  52  59 S10       30.18R

$$

UTZ012>022-026-027-231600-

SOUTHERN UTAH

CITY           SKY/WX    TMP DP  RH WIND       PRES   REMARKS
BRYCE CANYON   SUNNY     49  39  68 W7        30.38R
CEDAR CITY     SUNNY     57  45  64 CALM      30.25R
MILFORD        SUNNY     55  45  68 S6        30.22R
MOAB/CYNLANDS  SUNNY     66  55  67 CALM      30.18R
PRICE          SUNNY     62  53  72 CALM      30.26R
ST GEORGE      SUNNY     64  46  52 S3        30.15R
KANAB            N/A     59  41  51 NE3       30.27R

$$

REGIONAL REPORTS     COLORADO/ARIZONA

CITY           SKY/WX    TMP DP  RH WIND       PRES   REMARKS
CRAIG, CO      CLOUDY    56  50  80 E3        30.28R
GRAND JUNCTION SUNNY     65  52  62 E10       30.21R
RIFLE          SUNNY     57  51  80 CALM      30.27R
MONTROSE       MOSUNNY   60  50  69 S10       30.30S
CORTEZ         SUNNY     56  45  66 VRB3      30.30R
PAGE, AZ       SUNNY     68  43  40 SE5       30.18R
GRAND CANYON   SUNNY     53  41  63 CALM      30.34R
KINGMAN        SUNNY     71  39  31 CALM      30.12R
FLAGSTAFF      SUNNY     56  48  74 CALM      30.36R

$$

REGIONAL REPORTS    NEVADA/IDAHO/WYOMING

CITY           SKY/WX    TMP DP  RH WIND       PRES   REMARKS
LAS VEGAS, NV  SUNNY     78  42  27 SW3       30.00R
ELY            SUNNY     52  45  77 SE5       30.28R
ELKO           MOSUNNY   51  43  74 E5        30.19S
POCATELLO, ID  SUNNY     55  52  89 CALM      30.18R
BURLEY         SUNNY     54  49  83 CALM      30.13R
EVANSTON, WY   SUNNY     55  46  71 SW7       30.30R
ROCK SPRINGS   SUNNY     53  43  68 SW7       30.28R

$$


USA.gov is the U.S. government's official web portal to all federal, state and local government web resources and services.